SCP
-0 -0 -0 -0 -0 -0 0 0 0 0 0 0 -0 -0 -0 -1 -0 -0 -0 -0 0 -0 -0 0 0 -0 -0 -0 -0 -0 -0 -0 -0 0 0 0 0 0 0 0 0 0 0 0
-0 -0 -0 -0 -0 -0 0 -0 -0 0 0 0 -0 0 0 -0 -0 -0 -0 -0 -0 0 -0 -0 -0 -0 -0 -0 -0 -0 -0 -0 -0 0 0 0 0 0 0 0 0 0 0 1
-0 -0 -0 -0 -0 -0 0 -0 -0 0 0 0 0 -0 0 0 0 -0 -0 -0 -0 0 -0 -0 -0 -0 -0 -0 -0 -0 -0 -0 -0 0 -0 0 0 0 0 0 0 0 0 1
-0 -0 0 0 -0 -0 -0 -0 0 0 0 -0 0 0 0 0 -0 -0 -0 -0 0 -0 -0 -0 -0 -0 -0 -1 -0 -0 -0 -0 0 -0 -0 -0 0 0 0 0 0 -0 0 1
0 0 -0 -0 0 0 0 0 0 0 0 -0 0 0 0 0 0 0 -1 -0 -0 -0 -0 -0 -0 -0 -0 -1 -1 -0 -0 -0 0 -0 -0 -0 -0 0 -0 0 0 0 0 0
0 -0 -0 0 0 0 -0 -0 0 -0 -0 -0 -0 0 0 0 0 0 -0 -0 -0 -0 -0 -0 -0 -0 -0 -0 -1 -0 -0 -0 0 -0 -0 -0 -0 -0 0 0 0 -0 0 0
-0 -0 0 0 0 -0 0 -0 0 -0 0 0 0 0 0 -0 -0 -0 -0 0 -0 -0 -0 -0 -0 -0 0 -0 -1 -1 -1 -0 -0 -0 -0 0 -0 0 -0 0 -0 -0 0 0
-0 0 -0 0 0 -0 0 -0 -0 -0 0 -0 0 0 0 -0 0 0 0 0 0 -0 -1 -0 -0 -0 0 -0 -0 -1 -1 -0 -0 -0 0 0 -0 0 0 0 0 0 0 0
0 0 -0 0 0 0 -0 -0 -0 -0 -0 -0 -0 0 -0 0 0 0 0 0 0 0 -0 -0 -0 -0 -0 -0 -0 -1 -1 -0 -0 -0 -0 0 -0 -0 0 -0 0 0 0 0
0 0 0 0 0 0 -0 -0 -0 0 0 0 -0 0 0 0 0 -0 0 0 0 0 -0 -0 -0 -0 -0 -0 0 -1 -1 -0 -0 -0 -0 0 0 -0 -0 0 0 -0 0 0
0 0 0 -0 0 0 0 -0 0 0 0 0 0 0 0 0 0 0 0 0 -0 0 0 0 -0 -0 -0 0 -0 -0 -0 -0 0 0 0 0 0 -0 0 0 0 0 -0 0
0 0 0 0 -0 0 0 0 0 -0 0 0 0 -0 0 0 0 -0 0 0 0 0 0 0 -0 -1 -0 0 0 0 -0 -0 0 0 1 0 0 0 0 0 0 -0 0 0
0 0 0 0 0 0 0 0 0 0 0 0 0 0 0 -0 0 0 0 -0 0 0 0 0 -1 -1 -1 -0 0 0 0 0 0 0 0 1 0 0 0 0 0 0 0 0
0 0 0 0 0 0 0 0 0 0 0 0 0 0 0 0 0 0 0 0 0 0 0 0 -0 -1 -0 -0 0 0 0 -0 0 0 0 1 1 0 0 0 0 0 1 0
0 0 0 0 0 0 0 0 -0 0 0 0 0 0 0 0 0 0 0 0 0 0 -0 -0 -0 -1 -1 -1 -1 -0 -0 -0 -0 0 1 2 1 0 0 -0 -0 0 1 1
0 0 0 0 0 0 0 0 0 0 0 0 0 0 0 0 0 0 0 0 0 0 -0 -0 -0 -1 -2 -2 -1 -0 -0 -0 -0 0 0 1 1 0 0 0 0 0 0 1
1 1 1 0 0 0 0 0 0 -0 0 0 0 0 0 0 0 1 1 0 0 0 0 -0 -0 -1 -1 -1 -1 -1 -0 -0 -0 -0 -0 0 -0 0 0 0 0 0 0 0
0 0 0 0 1 1 0 0 0 0 0 0 0 0 0 0 0 0 1 0 -0 0 0 0 -0 -0 -0 -0 -0 -0 -0 -0 -0 -0 -0 -0 -0 -0 0 0 0 0 0 0
0 0 1 1 0 0 0 0 0 0 0 0 0 0 0 0 0 0 0 0 0 0 0 0 0 -0 -0 -1 -0 -0 -0 -0 -0 -0 -0 -0 -0 -0 -0 0 0 0 0 0
0 0 0 1 0 0 0 0 0 0 0 0 0 0 0 0 0 0 0 0 0 0 0 0 0 0 0 -1 -0 -0 -0 -0 -0 -0 -0 -0 -0 0 0 0 0 0 0 0
0 0 0 0 1 0 0 0 0 0 1 -0 0 0 0 0 0 0 0 -0 0 0 0 0 0 0 -0 -0 -0 0 0 0 -0 -0 0 0 0 0 0 0 1 1 1 0
0 0 0 -0 0 -0 1 1 1 2 2 2 2 1 1 0 0 0 0 0 0 0 0 0 0 0 0 0 0 0 0 0 1 0 1 1 1 0 0 1 1 1 0 0
0 1 0 0 0 1 1 0 1 -0 0 1 2 1 1 1 0 0 0 0 0 0 0 0 0 -0 -0 -0 0 0 0 0 0 0 0 0 0 0 1 1 1 0 0 0
0 -0 0 0 0 0 0 0 0 0 0 1 1 0 1 1 0 0 -0 -0 0 -0 0 0 -0 0 -0 -0 -0 -0 0 0 0 0 0 0 0 0 1 0 0 0 0 0
0 -0 -0 -0 0 0 0 0 0 0 0 0 0 0 0 1 0 0 0 0 0 -0 -0 0 0 0 -0 -0 -0 -0 0 0 0 0 0 0 0 1 1 1 0 0 0 0
0 0 0 0 -0 -0 0 0 0 0 0 0 -0 0 0 1 1 0 0 0 -0 -0 2 1 0 -0 -0 -0 -0 -0 0 0 0 0 0 0 0 0 1 0 1 0 0 0
Wind_Speed_500mb
34 24 28 35 35 41 18 17 26 16 21 8 18 27 35 45 36 36 44 49 43 51 42 40 32 33 36 28 28 20 16 21 27 43 40 32 37 18 11 18 11 21 8 12
27 34 31 36 35 35 18 29 31 1 8 14 23 27 17 34 41 44 48 44 49 46 51 40 44 34 38 39 34 30 22 29 32 23 26 31 19 14 18 8 14 16 5 14
34 34 35 36 30 36 20 28 33 7 14 14 10 27 10 27 29 46 45 51 53 44 64 57 49 49 45 43 41 34 31 34 26 27 24 24 21 21 27 26 15 22 17 3
29 35 36 19 24 33 28 27 18 17 24 29 20 20 13 8 33 37 54 56 53 45 54 56 48 56 50 52 43 38 38 34 40 29 22 24 19 16 25 33 18 9 11 8
33 33 30 33 39 24 29 30 3 28 28 35 27 17 17 34 28 64 55 63 53 52 69 63 60 67 53 54 49 41 39 36 39 37 35 31 31 21 14 20 31 23 16 23
37 37 31 30 28 28 35 33 18 32 27 27 29 21 21 15 10 30 32 64 59 53 58 70 65 55 55 53 47 45 37 41 43 42 42 37 32 27 18 16 36 23 19 13
37 41 35 29 24 33 31 27 20 25 23 25 7 23 8 29 31 35 34 52 67 60 54 50 59 59 50 55 50 50 38 41 44 42 40 39 38 28 30 18 25 26 17 24
29 26 46 34 37 31 33 36 24 33 16 13 35 21 22 27 36 17 10 14 50 61 65 63 62 66 59 57 52 55 43 37 44 42 35 38 34 24 32 33 24 28 22 17
35 39 27 38 29 31 38 30 32 43 41 30 24 10 16 16 12 23 19 20 14 39 71 70 63 62 66 55 58 54 45 36 41 42 38 35 36 36 33 31 34 29 28 17
37 35 37 8 17 32 35 33 28 21 27 27 23 8 15 20 22 13 21 20 15 23 66 74 80 68 69 58 55 48 49 41 38 41 38 40 36 32 36 28 31 39 18 25
37 31 34 35 26 28 26 33 36 34 22 23 22 2 11 16 22 30 23 13 27 22 29 46 64 68 70 64 60 54 48 41 40 44 43 36 36 28 38 30 23 32 41 41
33 31 32 40 42 23 29 37 39 25 28 26 25 26 29 25 27 26 60 56 41 21 29 42 74 75 68 66 59 60 58 48 46 45 47 44 33 36 34 30 35 37 31 40
23 18 23 32 35 38 33 32 40 35 34 34 24 7 15 24 7 15 65 64 26 15 27 35 71 76 72 74 70 61 64 60 51 51 46 47 40 40 39 43 32 36 38 34
12 25 34 32 33 33 2 38 35 44 31 32 30 17 23 21 22 23 28 33 25 25 29 34 56 67 56 60 72 68 62 65 58 39 46 48 45 42 42 39 41 38 39 39
18 39 40 48 57 55 40 35 48 40 41 37 32 21 20 11 13 19 26 33 34 35 34 32 36 64 60 59 51 53 56 55 51 51 50 52 36 44 46 48 46 45 45 45
22 23 34 52 53 56 55 41 46 45 41 45 44 35 27 43 22 40 58 45 40 42 39 38 33 50 48 48 50 47 50 58 59 61 55 54 46 45 47 47 40 42 43 45
32 25 25 36 39 43 50 54 46 43 39 41 37 30 28 14 12 38 37 48 47 47 45 44 44 44 44 46 52 50 56 53 61 50 51 47 48 45 41 38 34 30 32 34
40 34 24 27 42 44 42 39 46 39 24 45 30 20 21 16 12 17 24 48 51 48 49 48 47 46 46 43 40 43 43 36 45 46 41 37 36 35 33 32 32 28 30 32
43 36 31 23 35 46 45 44 44 30 40 47 26 30 39 56 27 13 32 49 48 48 49 48 47 45 47 50 47 47 45 44 40 40 41 34 31 28 32 34 32 34 34 34
42 42 30 19 14 46 46 45 59 28 24 41 22 19 8 21 6 10 42 34 46 47 45 46 47 42 43 55 51 46 44 42 39 35 35 34 28 27 28 31 33 26 21 23
25 15 25 31 24 17 55 43 41 26 5 31 33 28 20 5 10 25 23 108 55 56 48 50 49 50 52 45 43 48 42 37 30 25 24 23 22 20 18 16 17 21 24 28
34 10 16 18 25 37 20 35 4 10 33 42 36 30 13 21 32 8 50 38 38 60 58 54 50 50 45 46 45 42 37 32 30 30 30 32 30 21 17 16 18 19 25 24
9 14 4 18 16 24 39 46 15 11 11 33 47 51 32 17 41 58 60 51 38 10 56 52 54 56 53 48 47 40 35 32 30 28 23 18 17 12 14 14 17 27 22 25
11 16 11 8 2 16 43 34 42 42 9 23 3 48 26 22 36 56 92 88 90 75 52 60 62 57 55 48 41 38 34 25 25 21 21 19 19 18 17 20 23 28 31 30
30 7 10 14 15 30 17 16 18 42 35 16 27 28 23 24 14 62 65 84 96 92 81 81 71 61 58 52 43 32 28 28 27 22 20 19 19 23 22 23 23 27 31 36
41 21 8 10 17 21 28 13 15 24 54 32 39 28 18 24 19 35 65 89 110 76 79 78 75 69 62 52 44 34 28 26 26 23 18 16 13 13 21 20 20 23 28 38
Wind_Direction_500mb
232 240 241 250 254 283 284 315 287 131 158 225 255 222 196 183 205 203 202 206 198 190 181 170 180 173 169 164 163 177 164 157 164 160 166 162 164 154 183 206 218 162 111 193
243 239 245 264 276 282 319 285 280 37 161 229 260 263 213 178 193 198 204 203 208 206 171 182 180 177 177 172 174 178 193 153 155 171 161 145 160 199 180 247 246 187 257 236
247 254 235 237 261 268 260 268 282 317 312 287 269 275 71 313 191 190 210 214 208 209 174 177 190 178 179 177 179 182 197 163 148 158 154 162 174 197 205 209 213 217 217 105
250 259 264 251 256 270 265 281 313 321 293 286 208 275 137 76 309 280 194 210 216 206 184 182 187 179 184 181 183 185 199 186 170 180 177 169 186 206 179 184 208 241 186 154
259 259 247 256 265 260 264 275 261 290 276 276 241 241 161 156 185 248 189 199 203 206 189 188 190 188 184 178 185 192 199 202 183 181 185 183 192 207 225 213 206 214 206 203
267 265 272 252 263 249 272 258 300 272 259 263 291 248 144 174 197 221 202 191 194 209 194 182 184 189 183 174 178 191 198 200 191 196 194 194 194 198 221 192 208 206 211 237
256 251 248 258 262 270 229 253 251 256 239 259 57 4 221 202 212 217 195 192 188 193 195 171 180 182 183 174 177 192 202 197 196 207 208 198 197 201 216 208 211 220 231 223
257 236 213 218 222 250 235 233 249 263 303 290 153 214 133 197 173 158 156 186 181 190 180 183 187 187 178 179 180 184 198 200 197 205 214 209 200 191 199 211 219 228 239 225
273 275 311 202 209 215 253 233 258 273 279 278 273 190 190 112 70 146 171 175 178 182 167 185 191 177 181 182 180 191 201 203 198 203 211 211 213 203 199 215 237 217 260 291
246 268 276 243 189 219 237 260 240 238 272 280 274 61 83 34 2 282 165 177 176 173 173 182 182 182 179 179 182 190 204 210 203 196 217 216 214 209 204 209 224 218 230 269
242 249 263 277 213 226 214 239 258 271 274 292 292 116 133 143 99 306 222 103 151 169 183 182 173 168 173 181 185 185 199 208 204 193 216 212 220 220 212 212 217 228 238 235
243 246 243 254 266 238 234 237 226 246 256 257 284 311 152 185 191 202 113 146 271 156 179 185 164 168 179 185 187 188 195 205 200 201 206 223 219 214 229 232 221 237 247 244
352 293 276 260 255 253 227 225 250 236 241 263 271 205 167 204 188 181 136 193 132 168 165 184 169 173 178 184 188 192 195 205 208 200 200 222 228 220 227 238 229 236 247 250
305 277 271 278 278 273 294 279 224 247 242 244 255 227 175 196 215 154 130 127 144 166 167 183 164 170 177 172 179 188 200 207 215 200 202 220 234 228 225 240 237 240 238 250
248 262 268 274 280 287 283 222 263 234 258 262 259 232 171 342 305 140 143 150 162 160 164 173 179 166 173 177 193 203 196 209 215 204 210 219 244 230 231 229 232 237 240 246
296 307 298 255 263 273 279 262 264 265 228 244 255 258 146 192 195 138 201 162 171 157 166 168 181 159 164 170 175 177 191 201 205 209 215 225 231 233 234 241 240 245 248 254
292 293 294 288 287 277 262 259 258 244 262 231 246 255 109 109 132 170 170 171 169 164 166 168 175 168 176 180 191 199 207 211 208 204 216 232 224 238 247 240 242 248 261 249
271 257 261 274 295 263 267 275 279 270 294 260 235 242 137 121 291 288 240 174 166 168 163 169 167 170 178 181 187 189 190 197 194 204 214 224 227 232 228 233 240 250 260 259
248 256 258 240 253 277 267 265 279 258 247 278 260 252 158 148 176 193 254 175 166 164 163 162 164 167 175 174 175 180 185 193 201 208 216 216 225 228 229 241 252 259 264 268
230 241 247 192 226 251 270 253 256 264 273 265 332 299 205 140 138 247 233 237 168 162 164 164 160 162 165 157 166 172 179 189 200 200 204 211 225 233 241 250 257 270 276 281
271 246 257 238 227 213 264 315 282 265 197 269 348 312 144 166 174 164 270 227 181 155 165 155 157 157 158 165 172 169 177 181 180 182 193 200 214 228 232 244 247 252 261 266
271 176 203 266 261 235 335 317 328 21 17 5 344 333 292 195 239 127 108 110 97 152 154 156 157 157 162 161 160 164 164 168 176 190 194 204 214 210 232 245 271 262 257 269
33 343 277 194 186 295 343 343 53 64 74 12 8 335 340 339 123 109 112 121 164 3 155 164 158 153 159 164 164 159 166 177 183 189 194 191 199 208 229 242 264 287 291 288
4 75 288 41 139 298 292 23 5 352 40 86 319 267 311 356 143 133 128 161 186 218 211 166 159 157 158 163 160 169 177 177 175 181 191 206 221 232 244 259 273 282 286 280
301 148 187 217 271 275 161 90 21 353 337 315 300 310 319 327 137 145 160 164 175 201 190 167 162 164 159 166 166 177 172 166 173 190 203 218 233 248 254 268 267 256 268 282
283 290 293 300 106 19 308 219 281 330 317 330 321 306 306 301 307 178 153 165 186 198 167 162 162 162 163 162 164 178 169 169 172 186 197 202 224 250 264 269 282 278 275 273
Wind_Speed_850mb
34 24 28 35 35 41 18 17 26 16 21 8 18 27 35 45 36 36 44 49 43 51 42 40 32 33 36 28 28 20 16 21 27 43 40 32 37 18 11 18 11 21 8 12
27 34 31 36 35 35 18 29 31 1 8 14 23 27 17 34 41 44 48 44 49 46 51 40 44 34 38 39 34 30 22 29 32 23 26 31 19 14 18 8 14 16 5 14
34 34 35 36 30 36 20 28 33 7 14 14 10 27 10 27 29 46 45 51 53 44 64 57 49 49 45 43 41 34 31 34 26 27 24 24 21 21 27 26 15 22 17 3
29 35 36 19 24 33 28 27 18 17 24 29 20 20 13 8 33 37 54 56 53 45 54 56 48 56 50 52 43 38 38 34 40 29 22 24 19 16 25 33 18 9 11 8
33 33 30 33 39 24 29 30 3 28 28 35 27 17 17 34 28 64 55 63 53 52 69 63 60 67 53 54 49 41 39 36 39 37 35 31 31 21 14 20 31 23 16 23
37 37 31 30 28 28 35 33 18 32 27 27 29 21 21 15 10 30 32 64 59 53 58 70 65 55 55 53 47 45 37 41 43 42 42 37 32 27 18 16 36 23 19 13
37 41 35 29 24 33 31 27 20 25 23 25 7 23 8 29 31 35 34 52 67 60 54 50 59 59 50 55 50 50 38 41 44 42 40 39 38 28 30 18 25 26 17 24
29 26 46 34 37 31 33 36 24 33 16 13 35 21 22 27 36 17 10 14 50 61 65 63 62 66 59 57 52 55 43 37 44 42 35 38 34 24 32 33 24 28 22 17
35 39 27 38 29 31 38 30 32 43 41 30 24 10 16 16 12 23 19 20 14 39 71 70 63 62 66 55 58 54 45 36 41 42 38 35 36 36 33 31 34 29 28 17
37 35 37 8 17 32 35 33 28 21 27 27 23 8 15 20 22 13 21 20 15 23 66 74 80 68 69 58 55 48 49 41 38 41 38 40 36 32 36 28 31 39 18 25
37 31 34 35 26 28 26 33 36 34 22 23 22 2 11 16 22 30 23 13 27 22 29 46 64 68 70 64 60 54 48 41 40 44 43 36 36 28 38 30 23 32 41 41
33 31 32 40 42 23 29 37 39 25 28 26 25 26 29 25 27 26 60 56 41 21 29 42 74 75 68 66 59 60 58 48 46 45 47 44 33 36 34 30 35 37 31 40
23 18 23 32 35 38 33 32 40 35 34 34 24 7 15 24 7 15 65 64 26 15 27 35 71 76 72 74 70 61 64 60 51 51 46 47 40 40 39 43 32 36 38 34
12 25 34 32 33 33 2 38 35 44 31 32 30 17 23 21 22 23 28 33 25 25 29 34 56 67 56 60 72 68 62 65 58 39 46 48 45 42 42 39 41 38 39 39
18 39 40 48 57 55 40 35 48 40 41 37 32 21 20 11 13 19 26 33 34 35 34 32 36 64 60 59 51 53 56 55 51 51 50 52 36 44 46 48 46 45 45 45
22 23 34 52 53 56 55 41 46 45 41 45 44 35 27 43 22 40 58 45 40 42 39 38 33 50 48 48 50 47 50 58 59 61 55 54 46 45 47 47 40 42 43 45
32 25 25 36 39 43 50 54 46 43 39 41 37 30 28 14 12 38 37 48 47 47 45 44 44 44 44 46 52 50 56 53 61 50 51 47 48 45 41 38 34 30 32 34
40 34 24 27 42 44 42 39 46 39 24 45 30 20 21 16 12 17 24 48 51 48 49 48 47 46 46 43 40 43 43 36 45 46 41 37 36 35 33 32 32 28 30 32
43 36 31 23 35 46 45 44 44 30 40 47 26 30 39 56 27 13 32 49 48 48 49 48 47 45 47 50 47 47 45 44 40 40 41 34 31 28 32 34 32 34 34 34
42 42 30 19 14 46 46 45 59 28 24 41 22 19 8 21 6 10 42 34 46 47 45 46 47 42 43 55 51 46 44 42 39 35 35 34 28 27 28 31 33 26 21 23
25 15 25 31 24 17 55 43 41 26 5 31 33 28 20 5 10 25 23 108 55 56 48 50 49 50 52 45 43 48 42 37 30 25 24 23 22 20 18 16 17 21 24 28
34 10 16 18 25 37 20 35 4 10 33 42 36 30 13 21 32 8 50 38 38 60 58 54 50 50 45 46 45 42 37 32 30 30 30 32 30 21 17 16 18 19 25 24
9 14 4 18 16 24 39 46 15 11 11 33 47 51 32 17 41 58 60 51 38 10 56 52 54 56 53 48 47 40 35 32 30 28 23 18 17 12 14 14 17 27 22 25
11 16 11 8 2 16 43 34 42 42 9 23 3 48 26 22 36 56 92 88 90 75 52 60 62 57 55 48 41 38 34 25 25 21 21 19 19 18 17 20 23 28 31 30
30 7 10 14 15 30 17 16 18 42 35 16 27 28 23 24 14 62 65 84 96 92 81 81 71 61 58 52 43 32 28 28 27 22 20 19 19 23 22 23 23 27 31 36
41 21 8 10 17 21 28 13 15 24 54 32 39 28 18 24 19 35 65 89 110 76 79 78 75 69 62 52 44 34 28 26 26 23 18 16 13 13 21 20 20 23 28 38
Wind_Direction_850mb
232 240 241 250 254 283 284 315 287 131 158 225 255 222 196 183 205 203 202 206 198 190 181 170 180 173 169 164 163 177 164 157 164 160 166 162 164 154 183 206 218 162 111 193
243 239 245 264 276 282 319 285 280 37 161 229 260 263 213 178 193 198 204 203 208 206 171 182 180 177 177 172 174 178 193 153 155 171 161 145 160 199 180 247 246 187 257 236
247 254 235 237 261 268 260 268 282 317 312 287 269 275 71 313 191 190 210 214 208 209 174 177 190 178 179 177 179 182 197 163 148 158 154 162 174 197 205 209 213 217 217 105
250 259 264 251 256 270 265 281 313 321 293 286 208 275 137 76 309 280 194 210 216 206 184 182 187 179 184 181 183 185 199 186 170 180 177 169 186 206 179 184 208 241 186 154
259 259 247 256 265 260 264 275 261 290 276 276 241 241 161 156 185 248 189 199 203 206 189 188 190 188 184 178 185 192 199 202 183 181 185 183 192 207 225 213 206 214 206 203
267 265 272 252 263 249 272 258 300 272 259 263 291 248 144 174 197 221 202 191 194 209 194 182 184 189 183 174 178 191 198 200 191 196 194 194 194 198 221 192 208 206 211 237
256 251 248 258 262 270 229 253 251 256 239 259 57 4 221 202 212 217 195 192 188 193 195 171 180 182 183 174 177 192 202 197 196 207 208 198 197 201 216 208 211 220 231 223
257 236 213 218 222 250 235 233 249 263 303 290 153 214 133 197 173 158 156 186 181 190 180 183 187 187 178 179 180 184 198 200 197 205 214 209 200 191 199 211 219 228 239 225
273 275 311 202 209 215 253 233 258 273 279 278 273 190 190 112 70 146 171 175 178 182 167 185 191 177 181 182 180 191 201 203 198 203 211 211 213 203 199 215 237 217 260 291
246 268 276 243 189 219 237 260 240 238 272 280 274 61 83 34 2 282 165 177 176 173 173 182 182 182 179 179 182 190 204 210 203 196 217 216 214 209 204 209 224 218 230 269
242 249 263 277 213 226 214 239 258 271 274 292 292 116 133 143 99 306 222 103 151 169 183 182 173 168 173 181 185 185 199 208 204 193 216 212 220 220 212 212 217 228 238 235
243 246 243 254 266 238 234 237 226 246 256 257 284 311 152 185 191 202 113 146 271 156 179 185 164 168 179 185 187 188 195 205 200 201 206 223 219 214 229 232 221 237 247 244
352 293 276 260 255 253 227 225 250 236 241 263 271 205 167 204 188 181 136 193 132 168 165 184 169 173 178 184 188 192 195 205 208 200 200 222 228 220 227 238 229 236 247 250
305 277 271 278 278 273 294 279 224 247 242 244 255 227 175 196 215 154 130 127 144 166 167 183 164 170 177 172 179 188 200 207 215 200 202 220 234 228 225 240 237 240 238 250
248 262 268 274 280 287 283 222 263 234 258 262 259 232 171 342 305 140 143 150 162 160 164 173 179 166 173 177 193 203 196 209 215 204 210 219 244 230 231 229 232 237 240 246
296 307 298 255 263 273 279 262 264 265 228 244 255 258 146 192 195 138 201 162 171 157 166 168 181 159 164 170 175 177 191 201 205 209 215 225 231 233 234 241 240 245 248 254
292 293 294 288 287 277 262 259 258 244 262 231 246 255 109 109 132 170 170 171 169 164 166 168 175 168 176 180 191 199 207 211 208 204 216 232 224 238 247 240 242 248 261 249
271 257 261 274 295 263 267 275 279 270 294 260 235 242 137 121 291 288 240 174 166 168 163 169 167 170 178 181 187 189 190 197 194 204 214 224 227 232 228 233 240 250 260 259
248 256 258 240 253 277 267 265 279 258 247 278 260 252 158 148 176 193 254 175 166 164 163 162 164 167 175 174 175 180 185 193 201 208 216 216 225 228 229 241 252 259 264 268
230 241 247 192 226 251 270 253 256 264 273 265 332 299 205 140 138 247 233 237 168 162 164 164 160 162 165 157 166 172 179 189 200 200 204 211 225 233 241 250 257 270 276 281
271 246 257 238 227 213 264 315 282 265 197 269 348 312 144 166 174 164 270 227 181 155 165 155 157 157 158 165 172 169 177 181 180 182 193 200 214 228 232 244 247 252 261 266
271 176 203 266 261 235 335 317 328 21 17 5 344 333 292 195 239 127 108 110 97 152 154 156 157 157 162 161 160 164 164 168 176 190 194 204 214 210 232 245 271 262 257 269
33 343 277 194 186 295 343 343 53 64 74 12 8 335 340 339 123 109 112 121 164 3 155 164 158 153 159 164 164 159 166 177 183 189 194 191 199 208 229 242 264 287 291 288
4 75 288 41 139 298 292 23 5 352 40 86 319 267 311 356 143 133 128 161 186 218 211 166 159 157 158 163 160 169 177 177 175 181 191 206 221 232 244 259 273 282 286 280
301 148 187 217 271 275 161 90 21 353 337 315 300 310 319 327 137 145 160 164 175 201 190 167 162 164 159 166 166 177 172 166 173 190 203 218 233 248 254 268 267 256 268 282
283 290 293 300 106 19 308 219 281 330 317 330 321 306 306 301 307 178 153 165 186 198 167 162 162 162 163 162 164 178 169 169 172 186 197 202 224 250 264 269 282 278 275 273